Rome, GA

5:54 PM EST on November 20, 2019 (GMT -0500)
Russell

Weather History for KRMG - September, 2019

Change the Weather History Date:

Monday, September 9, 2019

  Actual Average Record
Temperature  
Mean Temperature 82 °F 74 °F  
Max Temperature 99 °F 86 °F 98 °F (2002)
Min Temperature 64 °F 63 °F 48 °F (1998)
Degree Days  
Heating Degree Days 0 0  
Month to date heating degree days 0 0  
Since 1 July heating degree days 0 0  
Cooling Degree Days 16 9  
Month to date cooling degree days 139 93  
Year to date cooling degree days 1898 1459  
Growing Degree Days 32 (Base 50)    
Moisture  
Dew Point 62 °F    
Average Humidity 60    
Maximum Humidity 87    
Minimum Humidity 24    
Precipitation  
Precipitation 0.00 in 0.11 in 1.34 in (2018)
Month to date precipitation 0.00 0.83  
Year to date precipitation 42.45 36.25  
Sea Level Pressure  
Sea Level Pressure 30.08 in    
Wind  
Wind Speed 2 mph ()    
Max Wind Speed 10 mph    
Max Gust Speed 15 mph    
Visibility 10.0 miles    
Events      
T = Trace of Precipitation, MM = Missing Value Source: Averaged Metar Reports

Daily Weather History Graph

Daily Weather History Graph

Search for Another Location

Airport or City:

Astronomy

Sep. 09, 2019 Rise Set
Actual Time 7:19 AM EDT 7:56 PM EDT
Civil Twilight 6:54 AM EDT 8:21 PM EDT
Nautical Twilight 6:24 AM EDT 8:51 PM EDT
Astronomical Twilight 5:53 AM EDT 9:21 PM EDT
Moon 5:39 PM EDT (9/9) 3:02 AM EDT (9/9)
Length of Visible Light 13h 27m
Length of Day
12h 36m
Waxing Gibbous, 83% of the Moon is Illuminated
Sep 9
Waxing Gibbous
Sep 14
Full
Sep 21
Last Quarter
Sep 28
New
Oct 5
First Quarter

Hourly Weather History & Observations

Time (EDT) Temp. Heat Index Dew Point Humidity Pressure Visibility Wind Dir Wind Speed Gust Speed Precip Events Conditions
12:53 AM 69.1 °F - 63.0 °F 81% 30.03 in 10.0 mi NNE 3.5 mph - N/A   Clear
1:53 AM 68.0 °F - 62.1 °F 81% 30.03 in 10.0 mi NNE 4.6 mph - N/A   Clear
2:53 AM 66.9 °F - 61.0 °F 81% 30.04 in 10.0 mi NNE 5.8 mph - N/A   Clear
3:53 AM 66.0 °F - 61.0 °F 84% 30.04 in 10.0 mi Calm Calm - N/A   Clear
4:53 AM 64.9 °F - 61.0 °F 87% 30.05 in 10.0 mi Calm Calm - N/A   Clear
5:53 AM 64.0 °F - 60.1 °F 87% 30.06 in 10.0 mi NNE 3.5 mph - N/A   Clear
6:53 AM 64.0 °F - 59.0 °F 84% 30.09 in 10.0 mi Calm Calm - N/A   Clear
7:53 AM 64.9 °F - 60.1 °F 84% 30.11 in 10.0 mi Calm Calm - N/A   Clear
8:53 AM 69.1 °F - 62.1 °F 78% 30.13 in 10.0 mi Calm Calm - N/A   Clear
9:53 AM 73.9 °F - 63.0 °F 68% 30.15 in 10.0 mi North 4.6 mph - N/A   Clear
10:53 AM 79.0 °F - 63.0 °F 58% 30.15 in 10.0 mi Variable 4.6 mph - N/A   Clear
11:53 AM 82.9 °F 84.6 °F 64.9 °F 54% 30.14 in 10.0 mi Calm Calm - N/A   Clear
12:53 PM 91.0 °F 91.5 °F 62.1 °F 38% 30.12 in 10.0 mi Calm Calm - N/A   Clear
1:53 PM 93.9 °F 92.6 °F 57.0 °F 29% 30.10 in 10.0 mi Calm Calm - N/A   Clear
2:53 PM 97.0 °F 96.5 °F 59.0 °F 28% 30.08 in 10.0 mi NW 5.8 mph - N/A   Clear
3:53 PM 97.0 °F 96.5 °F 59.0 °F 28% 30.05 in 10.0 mi NW 5.8 mph - N/A   Clear
4:53 PM 98.1 °F 96.4 °F 55.9 °F 24% 30.04 in 10.0 mi Variable 3.5 mph - N/A   Clear
5:53 PM 97.0 °F 95.7 °F 57.0 °F 26% 30.05 in 10.0 mi Calm Calm - N/A   Clear
6:53 PM 96.1 °F 95.6 °F 59.0 °F 29% 30.04 in 10.0 mi North 4.6 mph - N/A   Clear
7:53 PM 88.0 °F 89.3 °F 64.0 °F 45% 30.05 in 10.0 mi NNE 4.6 mph - N/A   Clear
8:53 PM 80.1 °F 82.1 °F 66.0 °F 62% 30.07 in 10.0 mi Calm Calm - N/A   Clear
9:53 PM 78.1 °F - 66.9 °F 68% 30.08 in 10.0 mi NNE 3.5 mph - N/A   Clear
10:53 PM 77.0 °F - 66.9 °F 71% 30.08 in 10.0 mi Calm Calm - N/A   Clear
11:53 PM 75.0 °F - 66.0 °F 73% 30.10 in 10.0 mi NNE 3.5 mph - N/A   Clear